• Em Portugal
  • Lista de países
  • Para 7 dias
  • Temperatura da água
  • Mapas de satélite
  • Mapa do tempo
  • Widgets de tempo
  • user-avatar
    Iniciar Sessão

    Previsão horária em Chizhovka

    Hoje, 16 Novembro, Sexta-feira

    Tempo Temperatura Precipitação Vento Pressão Humidade
    00:00 +1°C° 0 mm 1 m/s 763 mmHg 92%
    01:00 0°C° 0 mm 1 m/s 763 mmHg 92%
    02:00 -1°C° 0 mm 1 m/s 763 mmHg 88%
    03:00 -1°C° 0 mm 1 m/s 764 mmHg 87%
    04:00 -2°C° 0 mm 1 m/s 764 mmHg 86%
    05:00 -2°C° 0 mm 1 m/s 764 mmHg 85%
    06:00 -2°C° 0 mm 1 m/s 764 mmHg 84%
    07:00 -5°C° 0 mm 2 m/s 764 mmHg 83%
    08:00 -5°C° 0 mm 2 m/s 765 mmHg 81%
    09:00 -2°C° 0 mm 1 m/s 765 mmHg 78%
    10:00 -1°C° 0 mm 1 m/s 765 mmHg 75%
    11:00 +1°C° 0 mm 1 m/s 766 mmHg 71%
    12:00 +1°C° 0 mm 1 m/s 766 mmHg 73%
    13:00 +1°C° 0 mm 1 m/s 766 mmHg 74%
    14:00 +1°C° 0 mm 1 m/s 766 mmHg 76%
    15:00 0°C° 0 mm 1 m/s 766 mmHg 76%
    16:00 -1°C° 0 mm 1 m/s 766 mmHg 76%
    17:00 -2°C° 0 mm 1 m/s 766 mmHg 76%
    18:00 -2°C° 0 mm 1 m/s 766 mmHg 75%
    19:00 -2°C° 0 mm 1 m/s 766 mmHg 73%
    20:00 -2°C° 0 mm 1 m/s 766 mmHg 72%
    21:00 -3°C° 0 mm 1 m/s 766 mmHg 71%
    22:00 -3°C° 0 mm 1 m/s 766 mmHg 69%
    23:00 -3°C° 0 mm 1 m/s 766 mmHg 68%

    Amanhã, 17 Novembro, Sábado

    Tempo Temperatura Precipitação Vento Pressão Humidade
    00:00 -3°C° 0 mm 1 m/s 766 mmHg 66%
    01:00 -3°C° 0 mm 1 m/s 766 mmHg 64%
    02:00 -4°C° 0 mm 0 m/s 766 mmHg 63%
    03:00 -4°C° 0 mm 0 m/s 766 mmHg 62%
    04:00 -4°C° 0 mm 0 m/s 765 mmHg 61%
    05:00 -4°C° 0 mm 0 m/s 765 mmHg 60%
    06:00 -3°C° 0 mm 1 m/s 765 mmHg 60%
    07:00 -3°C° 0 mm 1 m/s 765 mmHg 61%
    08:00 -3°C° 0 mm 1 m/s 765 mmHg 61%
    09:00 -2°C° 0 mm 1 m/s 764 mmHg 61%
    10:00 -1°C° 0 mm 1 m/s 764 mmHg 61%
    11:00 0°C° 0 mm 1 m/s 764 mmHg 62%
    12:00 -1°C° 0 mm 2 m/s 763 mmHg 64%
    13:00 -1°C° 0 mm 2 m/s 762 mmHg 66%
    14:00 -1°C° 0 mm 2 m/s 762 mmHg 69%
    15:00 -1°C° 0 mm 2 m/s 761 mmHg 70%
    16:00 -2°C° 0 mm 3 m/s 760 mmHg 71%
    17:00 -2°C° 0 mm 3 m/s 760 mmHg 72%
    18:00 -2°C° 0 mm 3 m/s 759 mmHg 74%
    19:00 -2°C° 0 mm 3 m/s 758 mmHg 76%
    20:00 -2°C° 0 mm 3 m/s 758 mmHg 78%
    21:00 -3°C° 0 mm 4 m/s 757 mmHg 81%
    22:00 -3°C° 0 mm 4 m/s 756 mmHg 85%
    23:00 -3°C° 0 mm 4 m/s 756 mmHg 88%

    Depois de amanhã, 18 Novembro, Domingo

    Tempo Temperatura Precipitação Vento Pressão Humidade
    00:00 -3°C° 0 mm 4 m/s 755 mmHg 90%
    01:00 -2°C° 0 mm 4 m/s 754 mmHg 92%
    02:00 -2°C° 0 mm 4 m/s 753 mmHg 94%
    03:00 -2°C° 0.1 mm 4 m/s 752 mmHg 94%
    04:00 -1°C° 0.1 mm 4 m/s 751 mmHg 95%
    05:00 -1°C° 0.1 mm 4 m/s 750 mmHg 96%
    06:00 -1°C° 0.1 mm 4 m/s 750 mmHg 96%
    07:00 -1°C° 0.1 mm 4 m/s 749 mmHg 97%
    08:00 0°C° 0.1 mm 3 m/s 749 mmHg 97%
    09:00 +1°C° 0.2 mm 3 m/s 749 mmHg 98%
    10:00 +1°C° 0.2 mm 3 m/s 748 mmHg 98%
    11:00 +1°C° 0.2 mm 3 m/s 748 mmHg 99%
    12:00 +1°C° 0.2 mm 3 m/s 748 mmHg 99%
    13:00 +2°C° 0.2 mm 2 m/s 748 mmHg 99%
    14:00 +2°C° 0.2 mm 2 m/s 748 mmHg 99%
    15:00 +2°C° 0.1 mm 2 m/s 748 mmHg 98%
    16:00 +2°C° 0.1 mm 2 m/s 748 mmHg 98%
    17:00 +2°C° 0.1 mm 2 m/s 748 mmHg 98%
    18:00 +1°C° 0.2 mm 2 m/s 748 mmHg 98%
    19:00 0°C° 0.2 mm 3 m/s 748 mmHg 97%
    20:00 0°C° 0.2 mm 3 m/s 748 mmHg 97%
    21:00 0°C° 0.2 mm 3 m/s 748 mmHg 97%
    22:00 0°C° 0.2 mm 3 m/s 748 mmHg 96%
    23:00 0°C° 0.2 mm 3 m/s 749 mmHg 96%

    19 Novembro, Segunda-feira

    Tempo Temperatura Precipitação Vento Pressão Humidade
    00:00 0°C° 0.1 mm 3 m/s 749 mmHg 96%
    01:00 0°C° 0.1 mm 3 m/s 749 mmHg 95%
    02:00 0°C° 0.1 mm 3 m/s 749 mmHg 95%
    03:00 0°C° 0.1 mm 3 m/s 749 mmHg 95%
    04:00 0°C° 0.1 mm 3 m/s 750 mmHg 95%
    05:00 0°C° 0.1 mm 3 m/s 750 mmHg 95%
    06:00 0°C° 0.1 mm 3 m/s 750 mmHg 95%
    07:00 0°C° 0.1 mm 3 m/s 750 mmHg 95%
    08:00 0°C° 0.1 mm 3 m/s 750 mmHg 95%
    09:00 0°C° 0.1 mm 3 m/s 751 mmHg 95%
    10:00 0°C° 0.1 mm 3 m/s 751 mmHg 95%
    11:00 0°C° 0.1 mm 3 m/s 752 mmHg 95%
    12:00 0°C° 0.1 mm 3 m/s 752 mmHg 95%
    13:00 0°C° 0.1 mm 3 m/s 752 mmHg 95%
    14:00 0°C° 0.1 mm 3 m/s 752 mmHg 94%
    15:00 0°C° 0.1 mm 3 m/s 753 mmHg 94%
    16:00 0°C° 0.1 mm 3 m/s 753 mmHg 94%
    17:00 -1°C° 0.1 mm 3 m/s 753 mmHg 94%
    18:00 -1°C° 0 mm 3 m/s 753 mmHg 94%
    19:00 -1°C° 0 mm 3 m/s 754 mmHg 93%
    20:00 -2°C° 0 mm 4 m/s 754 mmHg 93%
    21:00 -2°C° 0 mm 3 m/s 754 mmHg 92%
    22:00 -2°C° 0 mm 3 m/s 755 mmHg 91%
    23:00 -4°C° 0 mm 3 m/s 755 mmHg 91%

    20 Novembro, Terça-feira

    Tempo Temperatura Precipitação Vento Pressão Humidade
    00:00 -4°C° 0 mm 3 m/s 755 mmHg 89%
    01:00 -5°C° 0 mm 3 m/s 755 mmHg 88%
    02:00 -5°C° 0 mm 3 m/s 755 mmHg 87%
    03:00 -5°C° 0 mm 4 m/s 755 mmHg 87%
    04:00 -5°C° 0 mm 4 m/s 755 mmHg 88%
    05:00 -4°C° 0 mm 4 m/s 755 mmHg 88%
    06:00 -4°C° 0.1 mm 4 m/s 755 mmHg 89%
    07:00 -4°C° 0.1 mm 4 m/s 755 mmHg 89%
    08:00 -4°C° 0.1 mm 4 m/s 755 mmHg 89%
    09:00 -3°C° 0 mm 4 m/s 755 mmHg 87%
    10:00 -3°C° 0 mm 4 m/s 755 mmHg 85%
    11:00 -2°C° 0 mm 4 m/s 755 mmHg 83%
    12:00 -2°C° 0 mm 4 m/s 754 mmHg 81%
    13:00 -2°C° 0 mm 4 m/s 754 mmHg 79%
    14:00 -2°C° 0 mm 4 m/s 754 mmHg 77%
    15:00 -3°C° 0 mm 4 m/s 754 mmHg 78%
    16:00 -2°C° 0 mm 3 m/s 754 mmHg 80%
    17:00 -4°C° 0 mm 3 m/s 754 mmHg 81%
    18:00 -4°C° 0 mm 3 m/s 753 mmHg 83%
    19:00 -4°C° 0 mm 3 m/s 753 mmHg 86%
    20:00 -4°C° 0 mm 3 m/s 753 mmHg 88%
    21:00 -4°C° 0 mm 3 m/s 753 mmHg 89%
    22:00 -4°C° 0 mm 3 m/s 753 mmHg 91%
    23:00 -2°C° 0 mm 3 m/s 753 mmHg 92%

    21 Novembro, Quarta-feira

    Tempo Temperatura Precipitação Vento Pressão Humidade
    00:00 -2°C° 0 mm 3 m/s 753 mmHg 92%
    01:00 -2°C° 0 mm 3 m/s 752 mmHg 92%
    02:00 -2°C° 0 mm 3 m/s 752 mmHg 92%
    03:00 -4°C° 0 mm 3 m/s 752 mmHg 92%
    04:00 -4°C° 0 mm 3 m/s 752 mmHg 92%
    05:00 -5°C° 0 mm 3 m/s 751 mmHg 92%
    06:00 -5°C° 0 mm 4 m/s 751 mmHg 91%
    07:00 -5°C° 0 mm 4 m/s 751 mmHg 90%
    08:00 -5°C° 0 mm 4 m/s 751 mmHg 89%
    09:00 -4°C° 0 mm 4 m/s 750 mmHg 87%
    10:00 -5°C° 0 mm 5 m/s 750 mmHg 84%
    11:00 -4°C° 0 mm 5 m/s 750 mmHg 82%
    12:00 -4°C° 0 mm 5 m/s 749 mmHg 82%
    13:00 -4°C° 0 mm 5 m/s 749 mmHg 81%
    14:00 -4°C° 0 mm 6 m/s 748 mmHg 81%
    15:00 -4°C° 0 mm 6 m/s 748 mmHg 82%
    16:00 -4°C° 0 mm 6 m/s 748 mmHg 83%
    17:00 -4°C° 0 mm 6 m/s 748 mmHg 84%
    18:00 -5°C° 0 mm 6 m/s 747 mmHg 84%
    19:00 -5°C° 0 mm 6 m/s 747 mmHg 83%
    20:00 -5°C° 0 mm 6 m/s 747 mmHg 83%
    21:00 -5°C° 0 mm 6 m/s 747 mmHg 82%
    22:00 -5°C° 0 mm 6 m/s 746 mmHg 82%
    23:00 -5°C° 0 mm 6 m/s 746 mmHg 81%
    Mostrar mais